Simultaneous Nadir Overpasses (SNOs) Predictions

Prediction of SNOs between GOES-16 and AQUA Satellite Orbit:

Table of predicted SNOs for the next 14.0 days since TLE Epoch: 2/7/2020
Index Date Time (GOES-16) GOES-16 Lat,Lon AQUA Lat,Lon Distance(km) Time Diff (sec)
1 02/09/2020 06:17:24 0.06, -75.20 -0.88, -70.90 489.86 80
2 02/09/2020 18:38:47 -0.07, -75.21 -0.28, -76.09 100.30 80
3 02/11/2020 18:29:18 -0.07, -75.22 0.40, -73.14 236.99 80
4 02/12/2020 06:50:33 0.07, -75.23 0.75, -78.29 348.74 80
5 02/14/2020 06:38:24 0.07, -75.25 0.07, -75.35 10.95 80
6 02/16/2020 06:23:34 0.07, -75.27 -0.54, -72.39 327.73 80
7 02/16/2020 18:44:58 -0.08, -75.28 -0.60, -77.57 262.04 80
8 02/18/2020 18:35:29 -0.08, -75.31 0.09, -74.63 77.25 80
9 02/20/2020 18:23:19 -0.09, -75.34 0.71, -71.68 417.03 80
10 02/21/2020 06:44:35 0.09, -75.36 0.39, -76.84 167.99 80




NCC Satellite Simultaneous Nadir Overpasses (SNOs) Prediction Service
